Location: Observatoire de l'Aigle
(47.0607°N, 71.3152°W)
Time: 11:13:12
(UTC-04:00)

Daily predictions for brighter satellites

Satellite Brightness Start Highest point End
(mag) Time Altitude Azimuth Time Altitude Azimuth Time Altitude Azimuth
Resurs 01 Rocket 2.9 20:03:38 10° S 20:07:52 45° W 20:12:10 10° NNW
NOSS 7 (E) 4.4 20:07:07 10° SSW 20:10:27 61° SE 20:13:50 10° NE
Cosmos 1544 Rocket 3.7 20:06:20 10° S 20:10:44 84° W 20:15:12 10° N
ALOS 2.3 20:07:18 10° SSE 20:11:59 88° WSW 20:16:42 10° NNW
Cosmos 2208 Rocket 4.0 20:08:22 10° SSW 20:13:41 78° ESE 20:19:07 10° NNE
Cosmos 2369 3.7 20:09:19 10° S 20:14:54 62° ESE 20:20:33 10° NNE
Cosmos 1980 Rocket 3.5 20:13:20 10° SE 20:17:01 18° E 20:20:42 10° ENE
Helios 1B rocket 3.7 20:13:30 10° N 20:17:29 46° WNW 20:21:25 10° SW
Cosmos 2298 Rocket 4.2 20:12:22 10° NNW 20:17:38 57° ENE 20:22:52 10° SE
Cosmos 1975 3.3 20:13:56 10° SSE 20:17:49 42° E 20:21:43 10° NNE
H-2A R/B 2.8 20:14:26 10° SSE 20:18:20 89° WSW 20:22:19 10° NNW
Lacrosse 5 rocket 2.0 20:18:27 10° WNW 20:22:02 43° SW 20:25:29 10° SSE
CZ-4B DEB 4.1 20:19:36 10° S 20:22:44 42° W 20:25:55 10° NNW
Cosmos 1937 Rocket 4.0 20:19:10 10° NNW 20:24:13 44° ENE 20:29:04 11° SE
Iridium 4 Rocket 3.5 20:20:04 10° N 20:25:09 56° E 20:29:45 10° SSE
Envisat 3.6 20:20:36 10° SE 20:25:15 38° ENE 20:29:56 10° N
USA 186 1.7 20:23:07 10° S 20:26:11 76° WSW 20:29:03 10° NNW
Cosmos 1570 Rocket 4.3 20:22:55 10° SSW 20:28:13 76° WNW 20:33:31 10° NNE
Meteor 1-12 Rocket 4.3 20:32:00 10° S 20:37:44 77° E 20:43:37 10° NNE
FENGYUN 3A 4.3 20:32:45 10° S 20:38:00 57° W 20:43:18 10° NNW
CZ-2D R/B 4.3 20:35:06 10° S 20:38:50 46° W 20:42:37 10° NNW
H-2A R/B 4.0 20:38:13 10° ENE 20:39:35 11° NE 20:40:56 10° NE
Cosmos 2263 Rocket 4.1 20:36:31 10° N 20:39:58 16° NE 20:43:23 10° ENE
Cosmos 1656 3.7 20:36:18 10° S 20:41:48 58° ESE 20:47:14 10° NNE
Cosmos 2227 Rocket 3.2 20:37:04 10° NW 20:42:26 45° WSW 20:47:46 10° S
Cosmos 2150 Rocket 3.9 20:38:37 10° NNW 20:43:48 81° ENE 20:48:42 11° SSE
Cosmos 2173 Rocket 4.4 20:38:19 10° SSE 20:44:17 44° E 20:50:14 10° NNE
Tiangong 1 2.0 20:43:11 10° WSW 20:46:02 34° S 20:47:24 22° SE
Cosmos 1605 Rocket 4.3 20:42:46 10° SSW 20:49:05 75° W 20:55:23 10° N
Cosmos 1825 Rocket 4.0 20:45:19 10° N 20:49:36 44° ENE 20:52:30 18° SE
Cosmos 2322 Rocket 4.0 20:50:52 12° E 20:50:52 12° E 20:52:12 10° ENE
Cosmos 1500 3.1 20:48:23 10° S 20:52:06 66° E 20:55:52 10° NNE
Lacrosse 5 1.9 20:48:15 10° NW 20:53:20 79° SW 20:56:52 20° SE
ERS-1 Rocket 2.9 20:48:23 10° SSE 20:53:25 84° ENE 20:58:29 10° NNW
Cosmos 1939 Rocket 2.9 20:49:57 14° SSE 20:53:28 69° ENE 20:57:38 10° N
Cosmos 2297 Rocket 3.1 20:52:21 10° NW 20:57:45 47° WSW 21:03:07 10° S
Cosmos 2100 Rocket 4.0 20:51:39 10° S 20:57:48 60° E 21:03:54 10° NNE
Cosmos 1953 Rocket 4.1 20:55:35 10° N 20:59:51 42° ENE 21:02:07 24° SE
Cosmos 1340 3.0 20:56:30 10° N 21:00:11 46° ENE 21:01:55 27° SE
Cosmos 1898 Rocket 3.8 20:57:41 10° NNW 21:02:58 69° WSW 21:07:48 12° S
SPOT 5 3.1 21:00:32 21° SE 21:03:41 52° ENE 21:08:19 10° N
Cosmos 2227 4.4 20:58:53 10° NNW 21:04:36 59° ENE 21:08:05 23° SE
Cosmos 2061 Rocket 4.0 20:58:34 10° S 21:04:46 62° E 21:10:56 10° NNE
YAOGAN 11 4.5 21:00:40 10° S 21:05:09 67° WSW 21:09:36 10° NNW
YAOGAN 6 3.4 21:04:21 28° ESE 21:05:29 35° ENE 21:08:55 10° N
Cosmos 1763 Rocket 4.0 21:01:52 14° SSE 21:05:46 35° ESE 21:10:22 10° NE
H-2A R/B 2.0 21:03:38 24° SE 21:05:59 61° ENE 21:10:06 10° N
Cosmos 1125 Rocket 4.3 21:04:16 10° N 21:09:02 35° ENE 21:11:19 24° ESE
PSLV R/B 3.9 21:13:17 33° ENE 21:13:23 33° ENE 21:16:11 10° N
MetOp-A 4.2 21:13:18 24° SE 21:16:30 63° ENE 21:21:49 10° N
Cosmos 2228 4.2 21:17:46 24° E 21:17:46 24° E 21:21:00 10° NE
RESURS DK-1 2.7 21:14:07 10° NW 21:18:14 62° WSW 21:20:28 25° S
Cosmos 1758 Rocket 3.6 21:14:22 10° N 21:18:40 56° ENE 21:20:18 34° SE
deb Chang Zheng 4 3.6 21:15:54 10° NNE 21:20:20 60° ESE 21:23:15 20° S
USA 215 3.7 21:15:54 19° E 21:20:38 55° NNE 21:26:59 10° NW
Cosmos 468 Rocket 3.9 21:16:18 10° SSW 21:21:25 86° WNW 21:26:36 10° NNE
CZ-4 SHROUD 3.7 21:26:35 43° ENE 21:26:35 43° ENE 21:29:22 10° N
Cosmos 841 Rocket 3.6 21:24:56 21° S 21:28:11 49° ESE 21:33:13 10° NNE
Cosmos 1743 2.7 21:26:38 18° SSW 21:29:31 83° W 21:33:28 10° N
Cosmos 1459 Rocket 3.9 21:23:51 10° S 21:29:54 86° W 21:36:04 10° N
Cosmos 1725 Rocket 4.2 21:28:17 27° SSE 21:31:24 50° E 21:37:23 10° NNE
Cosmos 1814 Rocket 4.1 21:26:33 10° SSW 21:31:54 83° WNW 21:37:15 10° NNE
Terra 3.2 21:32:32 23° ENE 21:33:18 24° ENE 21:37:03 10° N
SL-19 R/B 4.5 21:28:38 10° NNE 21:33:53 44° E 21:35:22 36° SE
Cosmos 1697 Rocket 2.9 21:31:38 10° SSW 21:37:17 73° WNW 21:42:57 10° NNE
SL-16 R/B 2.9 21:46:17 33° E 21:46:17 33° E 21:50:45 10° NE
Cosmos 2058 Rocket 3.0 21:45:01 48° SSE 21:46:07 69° E 21:50:38 10° NNE
NOAA 11 4.1 21:46:05 40° SE 21:48:05 73° ENE 21:53:34 10° N
ASTEX 1 3.4 21:45:06 10° N 21:50:09 86° W 21:52:41 30° S
Cosmos 1606 Rocket 3.8 21:50:20 24° SSW 21:52:58 67° W 21:57:25 10° N
Cosmos 372 Rocket 4.3 21:49:24 10° NNW 21:54:24 49° ENE 21:55:18 44° E
Cosmos 1842 3.3 21:50:45 10° NNW 21:54:40 73° W 21:55:11 62° SSW
ARGOS 3.1 21:53:32 44° SSE 21:55:18 81° ENE 22:00:43 10° NNW
Cosmos 2233 Rocket 4.2 21:55:16 42° SE 21:56:35 48° E 22:02:32 10° NNE
Cosmos 1980 Rocket 2.3 21:54:38 10° SSW 22:00:19 78° WNW 22:06:04 10° NNE
Cosmos 2360 Rocket 4.2 22:04:05 13° ENE 22:04:05 13° ENE 22:05:04 10° ENE
CARTOSAT-1 4.2 22:04:38 40° ENE 22:04:38 40° ENE 22:08:26 10° N
Cosmos 1707 4.4 22:01:57 10° NNE 22:04:19 24° NE 22:04:19 24° NE
Cosmos 1666 3.4 22:16:27 48° W 22:16:43 49° WNW 22:20:26 10° N
Meteor 2-5 Rocket 3.9 22:11:49 10° N 22:17:43 60° ENE 22:18:28 55° ESE
H-2A R/B 1.8 22:17:51 68° E 22:18:07 69° ENE 22:23:02 10° N
CZ-4B R/B 3.2 22:16:03 10° NNE 22:20:50 86° ESE 22:21:05 80° S
Meteor 1-15 Rocket 4.4 22:19:19 35° SSW 22:21:54 78° WNW 22:27:49 10° N
Cosmos 2263 Rocket 2.1 22:19:21 10° NNW 22:24:57 71° ENE 22:25:29 66° ESE
Cosmos 1375 Rocket 4.5 22:25:11 52° S 22:26:38 66° ESE 22:33:11 10° NE
Cosmos 2322 Rocket 2.0 22:32:38 75° SSE 22:33:02 81° ESE 22:38:42 10° NNE
SL-08 RB Rocket 4.2 22:33:41 51° WSW 22:34:01 52° W 22:38:34 10° NNW
Lacrosse 5 3.9 22:32:33 10° W 22:35:36 16° WSW 22:36:04 16° SW
Meteor 1-24 Rocket 4.1 22:31:11 10° N 22:37:07 52° ENE 22:37:21 52° E
SPOT 1/Viking Rocket 4.5 22:36:07 35° SW 22:37:26 41° W 22:42:23 10° NNW
Cosmos 1464 Rocket 4.3 22:41:24 50° E 22:41:24 50° E 22:47:21 10° NNE
GEOS 3 Rocket 4.4 22:36:29 10° NE 22:39:42 38° ENE 22:39:42 38° ENE
IGS 5A 4.2 22:44:44 50° NNW 22:44:44 50° NNW 22:47:52 10° NNW
Cosmos 405 Rocket 4.4 22:47:37 10° NNW 22:50:05 31° NW 22:50:05 31° NW
Cosmos 2228 4.4 22:54:37 32° W 22:54:59 32° WNW 22:58:52 10° N
Cosmos 332 Rocket 4.1 22:56:01 64° NNW 22:56:01 64° NNW 23:00:27 10° NNE
Cosmos 371 Rocket 4.1 23:00:41 45° NNE 23:00:41 45° NNE 23:04:03 10° NNE
GP-B 3.9 22:56:49 10° N 23:00:16 50° NNW 23:00:16 50° NNW
USA 215 3.2 23:03:14 63° SSW 23:03:36 64° SW 23:10:06 10° WNW
Terra 2.7 23:11:26 44° WNW 23:11:26 44° WNW 23:15:23 10° NNW
Cosmos 2278 Rocket 3.7 23:07:42 10° N 23:12:20 25° NE 23:13:01 24° ENE
Cosmos 540 Rocket 4.4 23:25:34 43° WNW 23:25:53 43° WNW 23:30:48 10° N
Meteor 1-22 Rocket 4.5 23:29:07 66° NNE 23:29:07 66° NNE 23:33:55 10° NNE
SL-16 R/B 3.1 23:28:05 36° W 23:29:41 44° NW 23:35:07 10° NNE
Cosmos 1844 Rocket 3.2 23:31:50 10° NNW 23:36:28 54° NNE 23:36:28 54° NNE
Cosmos 1844 4.4 23:32:07 10° NNW 23:37:01 47° NE 23:37:01 47° NE
Cosmos 2360 Rocket 2.7 23:45:50 56° N 23:45:50 56° N 23:50:22 10° NNE
